• In Österreich
  • Länderverzeichnis
  • Für 7 Tage
  • Wassertemperatur
  • Satellitenkarten
  • Wetterkarte
  • News
  • Widgets
  • user-avatar
    Anmelden

    Stündliche Wetter Audincourt

    Heute, 21 Juli, Samstag

    Zeit Temperatur Niederschläge Wind Luftdruck Luftfeuchtigkeit
    00:00 +17°C° 0 mm 2 m/S 730 mmHg 89%
    01:00 +17°C° 0,2 mm 2 m/S 730 mmHg 91%
    02:00 +16°C° 0,2 mm 2 m/S 730 mmHg 92%
    03:00 +16°C° 0,2 mm 2 m/S 730 mmHg 93%
    04:00 +16°C° 0,1 mm 1 m/S 730 mmHg 91%
    05:00 +18°C° 0,1 mm 1 m/S 730 mmHg 89%
    06:00 +18°C° 0 mm 2 m/S 730 mmHg 86%
    07:00 +19°C° 0,3 mm 2 m/S 730 mmHg 83%
    08:00 +21°C° 0,3 mm 2 m/S 730 mmHg 79%
    09:00 +23°C° 0,3 mm 2 m/S 730 mmHg 76%
    10:00 +23°C° 0,5 mm 2 m/S 730 mmHg 73%
    11:00 +24°C° 0,5 mm 2 m/S 730 mmHg 69%
    12:00 +23°C° 0 mm 2 m/S 731 mmHg 70%
    13:00 +24°C° 0,2 mm 2 m/S 731 mmHg 68%
    14:00 +24°C° 0,2 mm 2 m/S 731 mmHg 66%
    15:00 +24°C° 0,2 mm 2 m/S 731 mmHg 63%
    16:00 +24°C° 0,2 mm 1 m/S 731 mmHg 67%
    17:00 +23°C° 0,2 mm 1 m/S 731 mmHg 71%
    18:00 +23°C° 0,2 mm 1 m/S 731 mmHg 74%
    19:00 +21°C° 0 mm 1 m/S 731 mmHg 79%
    20:00 +19°C° 0 mm 1 m/S 731 mmHg 84%
    21:00 +16°C° 0 mm 0 m/S 731 mmHg 89%
    22:00 +16°C° 0 mm 1 m/S 731 mmHg 90%
    23:00 +16°C° 0 mm 1 m/S 731 mmHg 91%

    Morgen, 22 Juli, Sonntag

    Zeit Temperatur Niederschläge Wind Luftdruck Luftfeuchtigkeit
    00:00 +15°C° 0 mm 1 m/S 731 mmHg 92%
    01:00 +15°C° 0 mm 1 m/S 731 mmHg 92%
    02:00 +15°C° 0 mm 1 m/S 731 mmHg 93%
    03:00 +15°C° 0 mm 1 m/S 731 mmHg 93%
    04:00 +16°C° 0 mm 1 m/S 731 mmHg 91%
    05:00 +18°C° 0 mm 1 m/S 732 mmHg 88%
    06:00 +18°C° 0 mm 1 m/S 732 mmHg 86%
    07:00 +20°C° 0 mm 1 m/S 732 mmHg 78%
    08:00 +22°C° 0 mm 1 m/S 732 mmHg 70%
    09:00 +24°C° 0 mm 1 m/S 732 mmHg 63%
    10:00 +25°C° 0,2 mm 2 m/S 732 mmHg 60%
    11:00 +26°C° 0,2 mm 2 m/S 732 mmHg 58%
    12:00 +26°C° 0,2 mm 2 m/S 731 mmHg 56%
    13:00 +26°C° 0,3 mm 2 m/S 731 mmHg 58%
    14:00 +26°C° 0,3 mm 2 m/S 731 mmHg 60%
    15:00 +26°C° 0,3 mm 2 m/S 731 mmHg 62%
    16:00 +25°C° 0,4 mm 2 m/S 731 mmHg 68%
    17:00 +24°C° 0,4 mm 2 m/S 731 mmHg 74%
    18:00 +23°C° 0,4 mm 2 m/S 732 mmHg 80%
    19:00 +22°C° 0,2 mm 1 m/S 732 mmHg 83%
    20:00 +20°C° 0,2 mm 1 m/S 732 mmHg 87%
    21:00 +17°C° 0,2 mm 0 m/S 732 mmHg 90%
    22:00 +16°C° 0 mm 0 m/S 732 mmHg 91%
    23:00 +16°C° 0 mm 0 m/S 733 mmHg 92%

    übermorgen, 23 Juli, Montag

    Zeit Temperatur Niederschläge Wind Luftdruck Luftfeuchtigkeit
    00:00 +16°C° 0 mm 0 m/S 733 mmHg 92%
    01:00 +15°C° 0 mm 0 m/S 733 mmHg 93%
    02:00 +15°C° 0 mm 0 m/S 733 mmHg 93%
    03:00 +15°C° 0 mm 0 m/S 733 mmHg 93%
    04:00 +16°C° 0 mm 0 m/S 733 mmHg 91%
    05:00 +17°C° 0 mm 0 m/S 733 mmHg 90%
    06:00 +18°C° 0 mm 0 m/S 734 mmHg 88%
    07:00 +22°C° 0 mm 1 m/S 734 mmHg 79%
    08:00 +24°C° 0 mm 1 m/S 734 mmHg 70%
    09:00 +26°C° 0 mm 2 m/S 734 mmHg 60%
    10:00 +27°C° 0 mm 2 m/S 734 mmHg 56%
    11:00 +28°C° 0 mm 2 m/S 733 mmHg 51%
    12:00 +29°C° 0 mm 3 m/S 733 mmHg 47%
    13:00 +29°C° 0 mm 3 m/S 733 mmHg 47%
    14:00 +29°C° 0 mm 3 m/S 733 mmHg 47%
    15:00 +29°C° 0 mm 3 m/S 733 mmHg 47%
    16:00 +28°C° 0 mm 3 m/S 733 mmHg 53%
    17:00 +27°C° 0 mm 2 m/S 733 mmHg 59%
    18:00 +26°C° 0 mm 2 m/S 733 mmHg 65%
    19:00 +24°C° 0 mm 2 m/S 733 mmHg 71%
    20:00 +21°C° 0 mm 2 m/S 733 mmHg 76%
    21:00 +20°C° 0 mm 2 m/S 733 mmHg 82%
    22:00 +20°C° 0 mm 1 m/S 733 mmHg 84%
    23:00 +20°C° 0 mm 1 m/S 733 mmHg 87%

    24 Juli, Dienstag

    Zeit Temperatur Niederschläge Wind Luftdruck Luftfeuchtigkeit
    00:00 +19°C° 0 mm 1 m/S 732 mmHg 89%
    01:00 +19°C° 0 mm 1 m/S 732 mmHg 90%
    02:00 +18°C° 0 mm 1 m/S 732 mmHg 91%
    03:00 +18°C° 0 mm 1 m/S 732 mmHg 92%
    04:00 +19°C° 0 mm 1 m/S 732 mmHg 89%
    05:00 +20°C° 0 mm 1 m/S 732 mmHg 86%
    06:00 +21°C° 0 mm 1 m/S 732 mmHg 83%
    07:00 +23°C° 0 mm 1 m/S 732 mmHg 74%
    08:00 +26°C° 0 mm 1 m/S 732 mmHg 65%
    09:00 +28°C° 0 mm 2 m/S 732 mmHg 56%
    10:00 +29°C° 0 mm 2 m/S 732 mmHg 51%
    11:00 +31°C° 0 mm 1 m/S 732 mmHg 47%
    12:00 +32°C° 0 mm 1 m/S 732 mmHg 43%
    13:00 +32°C° 0 mm 1 m/S 731 mmHg 44%
    14:00 +32°C° 0 mm 1 m/S 731 mmHg 44%
    15:00 +32°C° 0 mm 1 m/S 731 mmHg 45%
    16:00 +31°C° 0,1 mm 1 m/S 731 mmHg 51%
    17:00 +29°C° 0,1 mm 1 m/S 731 mmHg 58%
    18:00 +28°C° 0,1 mm 1 m/S 731 mmHg 64%
    19:00 +26°C° 0,1 mm 1 m/S 731 mmHg 68%
    20:00 +25°C° 0,1 mm 1 m/S 732 mmHg 72%
    21:00 +23°C° 0,1 mm 1 m/S 732 mmHg 77%
    22:00 +22°C° 0 mm 1 m/S 732 mmHg 79%
    23:00 +22°C° 0 mm 1 m/S 732 mmHg 81%

    25 Juli, Mittwoch

    Zeit Temperatur Niederschläge Wind Luftdruck Luftfeuchtigkeit
    00:00 +19°C° 0 mm 0 m/S 732 mmHg 84%
    01:00 +19°C° 0 mm 0 m/S 732 mmHg 84%
    02:00 +19°C° 0 mm 0 m/S 732 mmHg 85%
    03:00 +19°C° 0 mm 0 m/S 732 mmHg 86%
    04:00 +19°C° 0 mm 0 m/S 732 mmHg 84%
    05:00 +20°C° 0 mm 0 m/S 732 mmHg 81%
    06:00 +21°C° 0 mm 0 m/S 732 mmHg 79%
    07:00 +23°C° 0,1 mm 0 m/S 732 mmHg 73%
    08:00 +25°C° 0,1 mm 0 m/S 733 mmHg 66%
    09:00 +29°C° 0,1 mm 1 m/S 733 mmHg 60%
    10:00 +30°C° 0,2 mm 1 m/S 732 mmHg 57%
    11:00 +31°C° 0,2 mm 1 m/S 732 mmHg 53%
    12:00 +31°C° 0,2 mm 1 m/S 732 mmHg 50%
    13:00 +31°C° 0,2 mm 1 m/S 732 mmHg 50%
    14:00 +31°C° 0,2 mm 1 m/S 732 mmHg 50%
    15:00 +31°C° 0,2 mm 1 m/S 732 mmHg 50%
    16:00 +30°C° 0,3 mm 1 m/S 732 mmHg 56%
    17:00 +29°C° 0,3 mm 1 m/S 731 mmHg 62%
    18:00 +28°C° 0,3 mm 1 m/S 731 mmHg 68%
    19:00 +26°C° 0,1 mm 1 m/S 732 mmHg 71%
    20:00 +22°C° 0,1 mm 0 m/S 732 mmHg 74%
    21:00 +21°C° 0,1 mm 0 m/S 732 mmHg 77%
    22:00 +20°C° 0,1 mm 0 m/S 732 mmHg 79%
    23:00 +20°C° 0,1 mm 0 m/S 732 mmHg 81%

    26 Juli, Donnerstag

    Zeit Temperatur Niederschläge Wind Luftdruck Luftfeuchtigkeit
    00:00 +19°C° 0,1 mm 0 m/S 732 mmHg 83%
    01:00 +19°C° 0,1 mm 0 m/S 732 mmHg 84%
    02:00 +19°C° 0,1 mm 0 m/S 732 mmHg 85%
    03:00 +18°C° 0,1 mm 0 m/S 732 mmHg 86%
    04:00 +19°C° 0 mm 0 m/S 732 mmHg 84%
    05:00 +20°C° 0 mm 0 m/S 732 mmHg 82%
    06:00 +21°C° 0 mm 0 m/S 732 mmHg 80%
    07:00 +25°C° 0,2 mm 1 m/S 732 mmHg 73%
    08:00 +27°C° 0,2 mm 1 m/S 732 mmHg 67%
    09:00 +28°C° 0,2 mm 1 m/S 733 mmHg 60%
    10:00 +29°C° 0,2 mm 1 m/S 733 mmHg 56%
    11:00 +30°C° 0,2 mm 2 m/S 732 mmHg 52%
    12:00 +31°C° 0,2 mm 2 m/S 732 mmHg 48%
    13:00 +31°C° 0,1 mm 2 m/S 732 mmHg 46%
    14:00 +32°C° 0,1 mm 2 m/S 732 mmHg 44%
    15:00 +32°C° 0,1 mm 2 m/S 732 mmHg 42%
    16:00 +31°C° 0,1 mm 1 m/S 732 mmHg 49%
    17:00 +30°C° 0,1 mm 1 m/S 732 mmHg 55%
    18:00 +28°C° 0,1 mm 1 m/S 732 mmHg 61%
    19:00 +27°C° 0,1 mm 1 m/S 732 mmHg 65%
    20:00 +25°C° 0,1 mm 1 m/S 733 mmHg 68%
    21:00 +24°C° 0,1 mm 1 m/S 733 mmHg 72%
    22:00 +23°C° 0,1 mm 1 m/S 733 mmHg 75%
    23:00 +22°C° 0,1 mm 1 m/S 733 mmHg 79%
    Mehr zeigen